San Ysidro, CA

5:16 AM PST on February 14, 2016 (GMT -0800)
Brown Municipal

Weather History for KSDM - October, 2013

Change the Weather History Date:

Saturday, October 5, 2013

  Actual Average Record
Temperature  
Mean Temperature 74 °F 67 °F  
Max Temperature 91 °F 77 °F 93 °F (1960)
Min Temperature 57 °F 58 °F 49 °F (1957)
Degree Days  
Heating Degree Days 0 1  
Month to date heating degree days 5  
Since 1 July heating degree days 15  
Cooling Degree Days 8 3  
Month to date cooling degree days 15  
Year to date cooling degree days 560  
Growing Degree Days 24 (Base 50)    
Moisture  
Dew Point 32 °F    
Average Humidity 31    
Maximum Humidity 100    
Minimum Humidity 6    
Precipitation  
Precipitation 0.00 in 0.01 in 0.62 in (2015)
Month to date precipitation 0.02  
Year to date precipitation 8.83  
Sea Level Pressure  
Sea Level Pressure 30.03 in    
Wind  
Wind Speed 2 mph (WSW)    
Max Wind Speed 13 mph    
Max Gust Speed 18 mph    
Visibility 10 miles    
Events      
T = Trace of Precipitation, MM = Missing Value Source: NWS Daily Summary

Daily Weather History Graph

Daily Weather History Graph

Search for Another Location

Airport or City:

Trip Planner

Search our weather history database for the weather conditions in past years. The results will help you decide how hot, cold, wet, or windy it might be!

Date:

Astronomy

Oct. 05, 2013 Rise Set
Actual Time 6:44 AM PDT 6:26 PM PDT
Civil Twilight 6:20 AM PDT 6:51 PM PDT
Nautical Twilight 5:51 AM PDT 7:19 PM PDT
Astronomical Twilight 5:23 AM PDT 7:48 PM PDT
Moon 7:24 AM PDT (10/5) 6:54 PM PDT (10/5)
Length of Visible Light 12h 31m
Length of Day
11h 42m
New Moon, 1% of the Moon is Illuminated
Oct 5
New Moon
Oct 11
First Quarter
Oct 18
Full
Oct 26
Last Quarter
Nov 3
New

Hourly Weather History & Observations

Time (PDT) Temp. Dew Point Humidity Pressure Visibility Wind Dir Wind Speed Gust Speed Precip Events Conditions
12:11 AM 57.2 °F 57.2 °F 100% 30.02 in 3.0 mi Calm Calm - N/A   Clear
12:53 AM 60.1 °F 57.9 °F 93% 30.01 in 6.0 mi Calm Calm - N/A   Clear
1:53 AM 61.0 °F 57.0 °F 87% 30.01 in 8.0 mi Calm Calm - N/A   Clear
2:53 AM 64.0 °F 48.0 °F 56% 30.01 in 10.0 mi WNW 4.6 mph - N/A   Clear
3:39 AM 60.8 °F 44.6 °F 55% 30.02 in 10.0 mi Calm Calm - N/A   Clear
3:53 AM 64.0 °F 43.0 °F 46% 30.01 in 10.0 mi Calm Calm - N/A   Clear
4:53 AM 62.1 °F 39.9 °F 44% 30.02 in 10.0 mi Calm Calm - N/A   Clear
5:53 AM 62.1 °F 33.1 °F 34% 30.02 in 10.0 mi Calm Calm - N/A   Clear
6:53 AM 57.9 °F 32.0 °F 37% 30.04 in 10.0 mi Calm Calm - N/A   Clear
7:53 AM 66.9 °F 33.1 °F 28% 30.05 in 10.0 mi Calm Calm - N/A   Clear
8:53 AM 75.0 °F 23.0 °F 14% 30.07 in 10.0 mi Calm Calm - N/A   Clear
9:53 AM 81.0 °F 19.9 °F 10% 30.08 in 10.0 mi Calm Calm - N/A   Clear
10:53 AM 84.9 °F 12.0 °F 7% 30.07 in 10.0 mi SE 6.9 mph - N/A   Clear
11:53 AM 87.1 °F 19.9 °F 8% 30.06 in 10.0 mi West 8.1 mph - N/A   Clear
12:53 PM 89.1 °F 15.1 °F 6% 30.04 in 10.0 mi South 6.9 mph - N/A   Clear
1:53 PM 90.0 °F 14.0 °F 6% 30.01 in 10.0 mi West 12.7 mph 18.4 mph N/A   Clear
2:53 PM 87.1 °F 21.0 °F 9% 30.01 in 10.0 mi WNW 6.9 mph - N/A   Clear
3:53 PM 87.1 °F 23.0 °F 10% 30.01 in 10.0 mi West 10.4 mph 17.3 mph N/A   Clear
4:53 PM 84.9 °F 27.0 °F 12% 30.01 in 10.0 mi WNW 5.8 mph - N/A   Clear
5:53 PM 81.0 °F 32.0 °F 17% 30.02 in 10.0 mi West 3.5 mph - N/A   Clear
6:53 PM 75.9 °F 30.9 °F 19% 30.04 in 10.0 mi Calm Calm - N/A   Clear
7:53 PM 73.0 °F 33.1 °F 23% 30.05 in 10.0 mi South 3.5 mph - N/A   Clear
8:53 PM 71.1 °F 28.9 °F 21% 30.05 in 10.0 mi South 4.6 mph - N/A   Clear
9:53 PM 66.0 °F 28.9 °F 25% 30.06 in 10.0 mi Calm Calm - N/A   Clear
10:53 PM 66.9 °F 28.0 °F 23% 30.06 in 10.0 mi Calm Calm - N/A   Clear
11:53 PM 66.0 °F 27.0 °F 23% 30.05 in 10.0 mi Calm Calm - N/A   Clear